Date String (YYYY-MM-DD hh:mm:ss) UTC,Instrument flags,absolute air pressure of the measurement (hPa),sample flow rate (lpm),inlet stack bypass flow (lpm),air temperature of the measurement (°C),ambient temperature measured by the external sensor (°C),aerosol sample conditioner tube jacket temperature (°C),OPC LED temperature (°C),internal box temperature (°C),relative humidity of the measurement (%),span deviation,mass concentration of particles derived from Lorenz-Mie calculation of OPC scattering (μg/m³),mass concentration of particles derived from Lorenz-Mie calculation of OPC scattering (μg/m³),mass concentration of particles derived from Lorenz-Mie calculation of OPC scattering (μg/m³)
DateTimeUTC,F1_M11,P_M11,Q1_M11,Q2_M11,T1_M11,T2_M11,T3_M11,T4_M11,T5_M11,U1_M11,ZSPAN_M11,X0_M11,X2_M11,X1_M11
2024-02-03 04:00:00,SystemResetWarning,0813.9,4.99,000.00,024.8,024.1,000.0,033.2,026.6,17.6,0002.4,0014.77,0005.72,0005.01
2024-02-03 04:01:00,SystemResetWarning,0813.9,5.01,000.00,024.8,024.1,000.0,033.2,026.6,17.6,0002.5,0014.56,0005.71,0005.01
2024-02-03 04:02:00,SystemResetWarning,0813.9,5.01,000.00,024.8,024.1,000.0,033.2,026.5,17.6,0002.8,0013.84,0005.73,0005.01
2024-02-03 04:03:00,SystemResetWarning,0813.9,5.00,000.00,024.8,024.1,000.0,033.2,026.5,17.5,0003.0,0013.37,0005.75,0005.02
2024-02-03 04:04:00,SystemResetWarning,0813.9,4.99,000.00,024.8,024.1,000.0,033.2,026.6,17.5,0003.0,0013.31,0005.76,0005.01
2024-02-03 04:05:00,SystemResetWarning,0813.9,5.00,000.00,024.8,024.1,000.0,033.2,026.6,17.5,0002.7,0012.93,0005.74,0005.02
2024-02-03 04:06:00,SystemResetWarning,0813.9,4.99,000.00,024.8,024.1,000.0,033.2,026.6,17.5,0002.5,0012.54,0005.77,0005.03
2024-02-03 04:07:00,SystemResetWarning,0813.9,4.99,000.00,024.8,024.1,000.0,033.2,026.6,17.5,0003.0,0012.09,0005.78,0005.03
2024-02-03 04:08:00,SystemResetWarning,0813.9,5.00,000.00,024.8,024.1,000.0,033.2,026.6,17.5,0003.2,0011.76,0005.80,0005.04
2024-02-03 04:09:00,SystemResetWarning,0813.9,5.00,000.00,024.8,024.1,000.0,033.2,026.6,17.5,0003.3,0012.19,0005.82,0005.05
2024-02-03 04:10:00,SystemResetWarning,0814.0,5.01,000.00,024.8,024.1,000.0,033.2,026.6,17.5,0003.3,0012.32,0005.85,0005.07
2024-02-03 04:11:00,SystemResetWarning,0813.9,5.01,000.00,024.8,024.1,000.0,033.2,026.6,17.5,0003.1,0012.62,0005.89,0005.07
2024-02-03 04:12:00,SystemResetWarning,0814.0,5.00,000.00,024.8,024.1,000.0,033.2,026.6,17.6,0003.0,0012.72,0005.92,0005.09
2024-02-03 04:13:00,SystemResetWarning,0814.0,4.99,000.00,024.8,024.1,000.0,033.2,026.6,17.6,0002.8,0012.98,0005.95,0005.10
2024-02-03 04:14:00,SystemResetWarning,0814.1,4.99,000.00,024.8,024.0,000.0,033.2,026.6,17.6,0002.9,0012.74,0005.93,0005.09
2024-02-03 04:15:00,SystemResetWarning,0814.1,5.00,000.00,024.8,024.0,000.0,033.2,026.6,17.5,0002.9,0012.56,0005.95,0005.10
2024-02-03 04:16:00,SystemResetWarning,0814.1,5.00,000.00,024.8,024.0,000.0,033.2,026.6,17.3,0002.9,0012.52,0005.95,0005.10
2024-02-03 04:17:00,SystemResetWarning,0814.1,5.01,000.00,024.8,024.0,000.0,033.2,026.6,17.3,0002.7,0012.09,0005.92,0005.12
2024-02-03 04:18:00,SystemResetWarning,0814.1,5.00,000.00,024.8,024.0,000.0,033.2,026.6,17.3,0003.0,0012.43,0005.91,0005.17
2024-02-03 04:19:00,SystemResetWarning,0814.1,5.00,000.00,024.8,024.1,000.0,033.2,026.6,17.2,0003.0,0013.05,0005.97,0005.22
2024-02-03 04:20:00,SystemResetWarning,0814.1,5.00,000.00,024.8,024.1,000.0,033.2,026.6,17.2,0003.2,0012.74,0006.02,0005.27
2024-02-03 04:21:00,SystemResetWarning,0814.1,4.99,000.00,024.8,024.0,000.0,033.2,026.6,17.3,0003.2,0012.97,0006.11,0005.33
2024-02-03 04:22:00,SystemResetWarning,0814.1,4.99,000.00,024.8,024.0,000.0,033.2,026.6,17.5,0003.2,0012.88,0006.22,0005.38
2024-02-03 04:23:00,SystemResetWarning,0814.0,5.00,000.00,024.8,024.0,000.0,033.2,026.6,17.7,0003.1,0012.57,0006.32,0005.45
2024-02-03 04:24:00,SystemResetWarning,0814.1,5.01,000.00,024.8,024.0,000.0,033.2,026.6,17.9,0003.3,0012.54,0006.33,0005.49
2024-02-03 04:25:00,SystemResetWarning,0814.1,5.01,000.00,024.8,024.0,000.0,033.2,026.6,18.1,0003.0,0012.25,0006.35,0005.52
2024-02-03 04:26:00,SystemResetWarning,0814.1,4.98,000.00,024.8,024.0,000.0,033.2,026.6,18.1,0002.4,0012.36,0006.39,0005.55
2024-02-03 04:27:00,SystemResetWarning,0814.1,4.99,000.00,024.8,024.0,000.0,033.2,026.6,18.2,0002.1,0012.46,0006.42,0005.56
2024-02-03 04:28:00,SystemResetWarning,0814.1,5.00,000.00,024.8,024.0,000.0,033.2,026.6,18.3,0002.3,0012.56,0006.45,0005.56
2024-02-03 04:29:00,SystemResetWarning,0814.1,5.00,000.00,024.8,024.0,000.0,033.2,026.6,18.3,0002.0,0012.67,0006.46,0005.52
2024-02-03 04:30:00,SystemResetWarning,0814.1,5.01,000.00,024.8,024.0,000.0,033.2,026.6,18.4,0001.4,0012.35,0006.43,0005.48
2024-02-03 04:31:00,SystemResetWarning,0814.0,5.00,000.00,024.8,024.0,000.0,033.2,026.6,18.5,0001.0,0012.12,0006.37,0005.43
2024-02-03 04:32:00,SystemResetWarning,0814.0,5.00,000.00,024.8,024.0,000.0,033.2,026.6,18.5,0000.1,0011.90,0006.30,0005.38
2024-02-03 04:33:00,SystemResetWarning,0814.0,5.00,000.00,024.8,024.0,000.0,033.2,026.6,18.6,-000.3,0012.01,0006.18,0005.31
2024-02-03 04:34:00,SystemResetWarning,0814.0,5.00,000.00,024.8,024.0,000.0,033.2,026.6,18.6,0000.1,0012.48,0006.10,0005.25
2024-02-03 04:35:00,SystemResetWarning,0814.0,4.99,000.00,024.8,024.0,000.0,033.2,026.6,18.7,0000.2,0013.39,0006.07,0005.21
2024-02-03 04:36:00,SystemResetWarning,0814.0,5.00,000.00,024.8,024.0,000.0,033.2,026.6,18.7,0000.5,0013.23,0006.06,0005.19
2024-02-03 04:37:00,SystemResetWarning,0814.1,5.00,000.00,024.8,024.0,000.0,033.2,026.6,18.7,0000.8,0013.49,0006.02,0005.17
2024-02-03 04:38:00,SystemResetWarning,0814.0,5.00,000.00,024.8,024.0,000.0,033.2,026.6,18.7,0000.9,0013.80,0005.99,0005.13
2024-02-03 04:39:00,SystemResetWarning,0814.1,5.01,000.00,024.8,024.0,000.0,033.2,026.6,18.7,0001.1,0013.77,0005.93,0005.12
2024-02-03 04:40:00,SystemResetWarning,0814.0,5.01,000.00,024.8,024.0,000.0,033.2,026.6,18.7,0001.1,0015.23,0005.91,0005.10
2024-02-03 04:41:00,SystemResetWarning,0814.0,5.00,000.00,024.8,024.0,000.0,033.2,026.6,18.7,0001.1,0014.97,0005.86,0005.08
2024-02-03 04:42:00,SystemResetWarning,0814.1,5.00,000.00,024.8,024.0,000.0,033.2,026.6,18.8,0000.7,0014.78,0005.84,0005.07
2024-02-03 04:43:00,SystemResetWarning,0814.1,5.00,000.00,024.8,024.0,000.0,033.2,026.6,18.8,0000.9,0014.80,0005.80,0005.05
2024-02-03 04:44:00,SystemResetWarning,0814.0,4.99,000.00,024.8,024.0,000.0,033.2,026.6,18.8,0001.3,0014.74,0005.83,0005.03
2024-02-03 04:45:00,SystemResetWarning,0814.0,5.00,000.00,024.8,024.0,000.0,033.2,026.6,18.9,0001.6,0014.17,0005.79,0005.01
2024-02-03 04:46:00,SystemResetWarning,0814.0,4.99,000.00,024.8,024.0,000.0,033.2,026.6,19.0,0001.4,0013.20,0005.75,0004.98
2024-02-03 04:47:00,SystemResetWarning,0814.0,5.00,000.00,024.7,024.0,000.0,033.2,026.6,19.1,0001.3,0013.69,0005.73,0004.95
2024-02-03 04:48:00,SystemResetWarning,0814.0,5.00,000.00,024.7,024.0,000.0,033.2,026.6,19.2,0001.5,0014.07,0005.78,0004.93
2024-02-03 04:49:00,SystemResetWarning,0814.0,5.00,000.00,024.7,024.0,000.0,033.2,026.6,19.3,0001.4,0014.04,0005.81,0004.92
2024-02-03 04:50:00,SystemResetWarning,0813.9,5.00,000.00,024.8,024.0,000.0,033.2,026.6,19.3,0001.3,0014.21,0005.87,0004.92
2024-02-03 04:51:00,SystemResetWarning,0813.9,5.01,000.00,024.7,024.0,000.0,033.2,026.6,19.3,0000.8,0013.16,0005.91,0004.93
2024-02-03 04:52:00,SystemResetWarning,0814.0,4.99,000.00,024.7,024.0,000.0,033.2,026.6,19.3,0000.9,0013.02,0005.94,0004.92
2024-02-03 04:53:00,SystemResetWarning,0813.9,5.00,000.00,024.7,024.0,000.0,033.2,026.6,19.3,0001.2,0013.10,0006.00,0004.92
2024-02-03 04:54:00,SystemResetWarning,0813.9,5.00,000.00,024.7,024.0,000.0,033.2,026.6,19.3,0001.1,0013.05,0006.00,0004.92
2024-02-03 04:55:00,SystemResetWarning,0813.9,5.00,000.00,024.7,024.0,000.0,033.2,026.6,19.3,0001.3,0013.17,0005.95,0004.90
2024-02-03 04:56:00,SystemResetWarning,0813.9,5.00,000.00,024.7,024.0,000.0,033.2,026.6,19.3,0001.3,0014.23,0005.94,0004.89
2024-02-03 04:57:00,SystemResetWarning,0813.8,5.00,000.00,024.7,024.0,000.0,033.2,026.6,19.2,0001.4,0015.36,0005.97,0004.89
2024-02-03 04:58:00,SystemResetWarning,0813.9,5.00,000.00,024.7,024.0,000.0,033.2,026.6,19.2,0001.7,0016.37,0006.00,0004.90
2024-02-03 04:59:00,SystemResetWarning,0813.9,5.00,000.00,024.7,024.0,000.0,033.2,026.6,19.2,0001.1,0016.46,0006.00,0004.91
